AirNav   Phillips 66 Aviation Fuel
 
 698 users online  

48G Gavagan Field Airport
Yale, Michigan, USA

GOING TO YALE?


FAA INFORMATION EFFECTIVE 20 JUNE 2019

Location

FAA Identifier: 48G
Lat/Long: 43-06-12.4000N / 082-53-24.8000W
43-06.206667N / 082-53.413333W
43.1034444 / -82.8902222
(estimated)
Elevation: 800 ft. / 244 m (estimated)
Variation: 06W (1985)
From city: 4 miles SW of YALE, MI
Time zone: UTC -4 (UTC -5 during Standard Time)
Zip code: 48097

Airport Operations

Airport use: Open to the public
Activation date: 10/1975
Control tower: no
ARTCC: CLEVELAND CENTER
FSS: LANSING FLIGHT SERVICE STATION
NOTAMs facility: LAN (NOTAM-D service available)
Attendance: IREG
CALL FOR RY COND.
Wind indicator: yes
Segmented circle: no

Airport Communications

CTAF: 122.9
WX AWOS-3P at D95 (17 nm W): 134.050 (810-664-5038)
WX AWOS-3 at PHN (20 nm SE): 118.375 (810-364-7787)

Nearby radio navigation aids

VOR radial/distance  VOR name  Freq  Var
FNTr084/38.5FLINT VORTAC116.9006W

Airport Services

Powerplant service: NONE
Bottled oxygen: NONE
Bulk oxygen: NONE

Runway Information

Runway 14/32

Dimensions: 1986 x 95 ft. / 605 x 29 m
Surface: turf, in fair condition
SOFT WHEN WET.
Runway edge markings: 14/32 THLD & RY 14 DSPLCD THLD MKD WITH TIRES.
RUNWAY 14  RUNWAY 32
Latitude: 43-06.335000N43-06.078333N
Longitude: 082-53.551667W082-53.275000W
Traffic pattern: leftleft
Displaced threshold: 690 ft.no
Runway end identifier lights: nono
Obstructions: 75 ft. tree, 138 ft. from runway, 133 ft. left of centerline, 1:1 slope to clear
+50 FT TREES 0 FT DSTC 100 FT L; APCH RATIO 0:1 AT DSPLCD THLD 20:1 BASED ON STRAIGHT OUT.
65 ft. trees, 63 ft. right of centerline

Airport Ownership and Management from official FAA records

Ownership: Privately-owned
Owner: ROBERT J. GAVAGAN
13989 FULTON ROAD
LYNN, MI 48097
Phone 586-776-6038
Manager: ROBERT J. GAVAGAN
13989 FULTON RD
LYNN, MI 48097
Phone 586-776-6038.

Airport Operational Statistics

Aircraft based on the field: 1
Single engine airplanes: 1
    
Aircraft operations: 100/year *
50% transient general aviation
50% local general aviation
* for 12-month period ending 31 December 2017

Additional Remarks

NO SNOW REMOVAL.
RY 14/32 HAS 2 FT DITCH ADJ TO RY BOTH SIDES.
FOR CD CTC CLEVELAND ARTCC AT 440-774-0490.

Instrument Procedures

There are no published instrument procedures at 48G.

Some nearby airports with instrument procedures:

77G - Marlette Township Airport (15 nm NW)
D95 - Dupont-Lapeer Airport (17 nm W)
D98 - Romeo State Airport (19 nm S)
KPHN - St Clair County International Airport (20 nm SE)
57D - Ray Community Airport (22 nm S)
 
Loc | Ops | Rwys | IFR | FBO | Links
Com | Nav | Svcs | Stats | Notes
Area around 48G (Gavagan Field Airport)
 
Road maps at: MapQuest Bing Google
 
Aerial photo
WARNING: Photo may not be current or correct
Aerial photo of 48G (Gavagan Field Airport)
Do you have a better or more recent aerial photo of Gavagan Field Airport that you would like to share? If so, please send us your photo.

 
Sectional chart

 
Airport distance calculator
Flying to Gavagan Field Airport? Find the distance to fly.

From to 48G

Sunrise and sunset
Times for 20-Jun-2019
 Local
(UTC-4)
 Zulu
(UTC)
Morning civil twilight05:1709:17
Sunrise05:5309:53
Sunset21:1301:13
Evening civil twilight21:4901:49

Current date and time
Zulu (UTC)  20-Jun-2019 11:37:56
Local (UTC-4)  20-Jun-2019 07:37:56
 
METAR
KD95 
17nm W 
201115Z AUTO 01004KT 10SM DZ OVC005 15/15 A2963 RMK AO2 T01530151
KPHN 
20nm SE 
201116Z AUTO 36003KT 5SM -RA OVC005 15/13 A2961 RMK AO2
CYZR 
26nm E 
201109Z AUTO 32005KT 7SM -RA OVC003 13/13 A2960 RMK SLP024 DENSITY ALT 900FT
KMTC 
29nm S 
201056Z AUTO 02005KT 10SM OVC007 17/17 A2959 RMK AO2 CIG 006 RWY01 SLP022 T01650165
KCFS 
32nm NW 
201117Z AUTO 02004KT 1 3/4SM +RA OVC006 14/14 A2965 RMK AO2 T01420137
TAF
CYZR 
26nm E 
200738Z 2008/2020 36010KT 5SM -SHRA BR BKN005 OVC080 TEMPO 2008/2012 P6SM NSW FEW005 OVC080 FM201200 36010G20KT 3SM -RA BR BKN005 OVC012 TEMPO 2012/2016 P6SM NSW SCT005 OVC012 FM201600 36012G22KT 3SM -RA BR BKN005 OVC012 RMK FCST BASED ON AUTO OBS. NXT FCST BY 201400Z
KMTC 
29nm S 
200900Z 2009/2115 02009KT 8000 -RA BKN040 OVC070 QNH2958INS BECMG 2012/2013 01009KT 6000 -RA OVC015 QNH2959INS BECMG 2018/2019 34012KT 8000 -RA FEW015 OVC025 QNH2962INS BECMG 2101/2102 34009KT 9999 NSW SCT025 BKN050 QNH2970INS BECMG 2109/2110 34009KT 9999 FEW050 QNH2980INS TX20/2020Z TN15/2011Z NO AMDS 2009 TIL 2011
NOTAMs
Click for the latest NOTAMs
NOTAMs are issued by the DoD/FAA and will open in a separate window not controlled by AirNav.

 

 
 

Would you like to see your business listed on this page?

 If your business provides an interesting product or service to pilots, flight crews, aircraft, or users of the Gavagan Field Airport, you should consider listing it here.  To start the listing process, click on the button below
 
Add a business
 

Other Pages about Gavagan Field Airport

Page from the Michigan Airport Directory (PDF)
 
Update a link
 
Copyright © AirNav, LLC. All rights reserved. Privacy Policy  Contact